Regional Weather Roundup
Issued by NWS

Home | Current Version | Previous Version | Graphics & Text | Print | Product List | Glossary On
Versions: 1 2 3 4 5 6 7 8 9 10 11 12 13 14 15 16 17 18 19 20 21 22 23 24 25 26 27 28 29 30 31 32 33 34 35 36 37 38 39 40 41 42 43 44 45 46 47 48 49 50
000
ASUS43 KLSX 170659
RWRMO

WEATHER SUMMARY FOR MISSOURI
NATIONAL WEATHER SERVICE SPRINGFIELD MO
200 AM CDT THU APR 17 2014

NOTE: "FAIR" INDICATES FEW OR NO CLOUDS BELOW 12,000 FEET WITH NO
       SIGNIFICANT WEATHER AND/OR OBSTRUCTIONS TO VISIBILITY.
       CURRENT SKY AND/OR WEATHER CONDITIONS ARE NOT AVAILABLE FOR
       CHILLICOTHE AND FARMINGTON.

MOZ001>031-035>038-043-044-053-054-170800-
...NORTHERN AND WESTERN MISSOURI...

CITY           SKY/WX    TMP DP  RH WIND       PRES   REMARKS
KANSAS CTY INT CLOUDY    40  31  70 NW6       30.12R
KANSAS C DTWN  CLEAR     43  32  65 NW9G17    30.12R
LEE`S SUMMIT   CLEAR     43  33  68 NW13      30.11R
ST JOSEPH      CLOUDY    40  31  70 N16       30.14R
CHILLICOTHE      N/A     42  33  70 NW7       30.10R
KIRKSVILLE     PTCLDY    45  34  65 W9        30.06R

$$
MOZ066>068-077>081-088>096-101>105-170800-
...SOUTHWEST MISSOURI...

CITY           SKY/WX    TMP DP  RH WIND       PRES   REMARKS
SPRINGFIELD    CLEAR     46  30  53 S14       30.10R
JOPLIN         CLEAR     50  31  48 S9        30.10R

$$
MOZ032>034-039>042-045>050-055>058-069>072-170800-
...CENTRAL MISSOURI...

CITY           SKY/WX    TMP DP  RH WIND       PRES   REMARKS
COLUMBIA       PTCLDY    46  30  53 S9        30.10R
JEFFERSON CITY FAIR      48  29  47 SE6       30.12R
ROLLA          CLEAR     45  30  55 S15       30.11R
SEDALIA        CLEAR     49  32  52 SW5       30.10R
OSAGE BEACH    CLEAR     46  27  46 S7        30.13R

$$
MOZ051-052-059>065-170800-
...EAST CENTRAL MISSOURI...

CITY           SKY/WX    TMP DP  RH WIND       PRES   REMARKS
ST LOUIS INTL  PTCLDY    49  28  44 S9        30.15R
SPIRIT OF STL  CLEAR     46  27  47 CALM      30.13S
ST CHARLES     CLEAR     43  31  62 SE6       30.14R

$$
MOZ072>076-082>087-097>100-106>115-170800-
...SOUTH CENTRAL AND SOUTHEAST MISSOURI...

CITY           SKY/WX    TMP DP  RH WIND       PRES   REMARKS
CAPE GIRARDEAU CLEAR     36  34  92 W5        30.18R
FARMINGTON     CLEAR     41  28  60 SE5       30.17F
POPLAR BLUFF   CLEAR     41  35  79 CALM      30.18R

$$



USA.gov is the U.S. government's official web portal to all federal, state and local government web resources and services.